Location: Bakhuizen
(52.8696°N, 5.4575°E)
Time: 06:23:42
(UTC+00:00)

Meteor 2-4 Rocket - Pass Details

Date: 11 May 2021
Orbit: 799 x 909 km, 81.2° (Epoch: 20 June)

Event Time Altitude Azimuth Distance (km) Brightness Sun altitude
Exits shadow 22:47:04 31° 158° (SSE) 1,479 4.4 -18.3°
Maximum altitude 22:49:36 55° 96° (E) 1,035 4.0 -18.3°
Drops below altitude 10° 22:55:03 10° 20° (NNE) 2,476 7.0 -18.5°
Sets 22:57:29 0° 16° (NNE) 3,398 8.0 -18.5°
